{"data":{"norad_id":55402,"intl_designator":"2023-014M","name":"STARLINK-5071","alt_names":[],"object_type":"PAYLOAD","status":"ACTIVE","operator":null,"country":"US","launch_date":"2023-01-31","launch_site_code":"AFWTR","launch_vehicle":null,"mission":null,"orbit_class":"UNKNOWN","rcs_meters":null,"size_class":null,"mass_kg":null,"dimensions":null,"purposes":["comms"],"wikipedia_slug":null,"has_3d_model":false,"image_url":null,"decayed_at":null,"tle_current":{"epoch":"2026-05-24T15:52:07.122720Z","epoch_age_seconds":104075,"freshness":"FRESH","line1":"1 55402U 23014M   26144.66119355  .00000080  00000+0  14488-4 0  9995","line2":"2 55402  69.9992 232.9647 0003100 265.9257  94.1548 14.98331545183438","mean_motion":14.98331545,"eccentricity":0.00031,"inclination_deg":69.9992,"raan_deg":232.9647,"arg_perigee_deg":265.9257,"mean_anomaly_deg":94.1548,"bstar":1.4488e-5,"rev_number":18343,"period_min":96.106900025254,"perigee_km":569.89655484839,"apogee_km":574.20567147855,"semimajor_km":6950.1881131635,"source":"CELESTRAK","updated_at":"2026-05-25T13:38:17.794929Z"}}}